Wind_Speed
10 8 5 4 4 3 4 3 1 1 2 2 4 6 7 9 10 10 10 10 11 11 11 10 11 10 10 8 7 7 7 7 7 7 6 6 5 5 5 5 5 5 5 6
10 8 6 6 6 5 5 3 3 3 3 2 3 5 7 8 9 9 9 9 10 10 11 10 10 10 9 9 7 6 6 6 6 6 6 5 5 5 6 6 6 6 5 6
11 9 8 8 7 6 6 6 5 5 5 4 4 5 5 7 9 8 8 9 9 9 10 10 9 9 9 8 8 7 6 6 6 5 5 5 5 6 6 6 6 6 6 6
13 12 11 10 9 9 9 7 6 6 6 5 5 8 5 6 8 8 8 7 8 8 8 8 8 8 8 8 8 8 7 6 6 5 6 6 5 5 6 7 6 6 7 7
14 12 12 12 12 12 10 9 8 7 7 6 6 10 8 6 8 8 7 7 7 8 8 8 8 8 7 7 7 8 8 7 7 6 6 6 6 6 7 7 7 7 7 7
16 14 14 15 14 13 11 9 7 7 8 9 8 9 7 9 8 8 7 7 7 7 7 8 8 7 7 7 7 8 8 9 8 8 8 8 8 7 8 8 8 8 8 8
16 15 16 16 15 14 12 10 10 10 11 10 8 11 10 11 9 10 9 7 7 8 7 7 8 8 7 7 7 8 8 9 9 9 9 9 9 10 9 9 9 9 9 9
16 16 16 16 16 15 14 13 13 12 12 10 10 12 10 13 13 12 10 8 8 9 8 8 8 9 9 8 8 9 9 9 10 10 10 10 10 10 10 10 10 10 10 11
18 17 18 18 18 17 15 15 13 14 13 13 12 13 13 15 13 11 10 9 10 10 10 9 9 9 10 10 10 10 10 10 10 10 11 11 11 11 11 10 11 11 11 12
22 21 20 20 19 19 18 15 14 15 15 16 14 14 15 15 14 14 13 13 13 12 11 11 11 11 11 11 11 11 11 11 11 11 12 12 12 11 11 11 12 12 12 12
23 21 20 21 20 18 18 17 17 18 16 15 15 15 15 14 15 17 16 16 14 14 13 13 13 13 13 13 12 13 12 12 12 12 12 13 13 12 12 12 13 13 13 13
26 23 22 21 20 20 20 20 19 19 19 18 16 15 15 14 17 18 18 19 17 16 15 15 15 14 14 14 14 14 14 14 14 14 14 14 14 14 13 14 14 15 15 15
27 27 24 22 20 21 21 21 22 21 20 19 17 15 16 15 17 19 19 20 19 17 17 17 16 16 16 16 16 15 16 16 16 16 16 16 16 15 15 16 16 16 16 17
30 30 27 25 22 21 21 21 21 22 22 20 19 19 20 20 20 19 18 20 21 20 19 18 18 18 18 18 18 18 18 18 18 18 18 18 17 17 17 17 18 18 18 18
30 31 31 30 27 24 24 23 23 24 24 22 22 22 23 23 23 22 22 22 23 22 22 21 21 21 21 20 20 20 20 20 20 20 20 19 19 19 19 19 19 19 19 20
31 32 32 32 30 29 28 26 25 25 24 24 25 25 25 27 26 24 24 25 25 25 23 23 24 23 23 23 22 21 21 22 22 22 22 22 21 21 21 21 20 20 20 21
32 32 32 31 30 31 32 30 28 26 25 26 26 27 27 28 29 28 27 27 27 27 26 26 25 25 25 25 24 24 23 23 23 24 23 23 22 23 23 22 22 22 22 23
33 33 33 31 31 33 33 31 30 30 31 30 29 30 30 30 30 30 30 29 29 28 28 28 27 27 27 27 27 27 26 26 25 26 25 24 24 24 24 24 24 25 25 25
33 33 34 33 33 33 33 32 30 30 32 32 32 34 34 33 32 32 31 31 31 31 31 30 30 29 29 29 29 29 29 29 29 28 28 28 27 27 27 27 27 27 27 27
32 33 33 33 34 33 33 31 30 32 33 32 33 35 35 34 34 34 33 32 32 32 32 32 32 31 31 31 31 31 32 32 32 31 30 30 30 30 30 30 30 29 29 30
31 33 33 33 34 34 32 31 32 34 35 34 34 34 36 36 35 36 35 34 34 34 35 35 35 34 34 33 34 34 34 34 33 33 32 32 32 32 32 33 33 32 33 33
31 32 33 33 33 33 33 32 32 35 37 37 37 37 37 38 37 38 37 37 36 36 36 36 36 36 35 35 36 35 35 35 34 34 34 35 34 34 35 36 35 35 35 35
33 33 34 34 34 34 34 34 35 36 37 38 38 38 38 38 39 40 40 39 38 38 38 38 37 37 36 36 36 36 36 35 35 35 35 36 36 37 37 37 37 37 36 35
33 34 35 36 36 36 37 37 37 38 39 40 40 39 39 40 39 40 41 40 40 39 39 38 38 38 38 38 38 38 37 36 36 36 37 37 37 37 38 37 37 37 36 36
34 35 35 36 37 38 38 38 39 40 40 41 41 41 40 40 41 41 41 41 40 38 39 39 39 39 39 39 39 38 37 37 37 37 38 39 39 38 38 39 38 37 37 37
34 35 36 36 37 39 39 39 39 40 40 41 41 42 41 41 41 41 41 41 41 40 39 39 40 40 39 39 39 39 39 39 39 39 39 39 38 38 38 38 38 37 37 38
Wind_Direction
180 183 191 200 189 211 236 200 177 315 311 353 352 8 8 5 8 12 11 17 22 27 30 32 34 37 40 41 44 46 42 41 39 40 37 35 31 23 14 4 353 350 353 353
187 196 210 217 193 211 234 226 268 289 308 328 330 338 353 354 350 358 9 12 20 23 26 29 29 29 31 31 33 38 37 33 31 31 27 24 19 15 11 6 358 352 346 341
198 204 215 219 208 218 236 239 240 261 272 286 301 312 317 328 331 346 3 6 13 17 19 21 24 24 25 26 27 27 24 22 19 18 15 19 18 10 4 358 352 344 337 335
212 215 219 221 223 228 239 242 242 250 272 282 290 293 287 313 321 332 345 358 1 7 11 14 18 21 20 21 21 20 16 8 5 1 357 1 3 360 354 349 345 338 333 331
222 222 221 224 230 233 239 237 241 247 262 273 276 282 276 289 303 316 327 335 345 354 0 4 10 14 14 13 15 12 10 5 356 348 345 345 344 340 340 339 337 336 336 333
219 221 230 228 234 237 236 244 257 257 259 265 265 269 272 271 293 293 301 319 330 337 349 352 356 1 5 3 4 2 360 358 356 349 346 338 335 332 330 333 332 331 332 330
227 228 232 233 235 239 236 239 255 260 258 263 266 261 262 268 279 280 286 302 316 322 332 339 343 348 351 352 352 352 351 351 349 347 346 344 341 339 337 337 335 332 332 332
229 237 238 238 235 236 239 236 246 258 262 266 262 256 263 267 276 282 279 287 303 309 315 321 326 333 334 337 339 340 340 341 342 341 339 339 338 336 337 336 334 331 329 331
222 231 237 240 241 241 237 234 237 255 263 262 256 259 263 271 273 282 285 287 297 302 305 307 313 319 322 323 327 331 331 331 332 332 333 333 330 329 330 330 328 325 325 328
223 225 229 236 237 237 236 236 233 244 255 251 250 260 263 261 274 279 284 287 289 293 299 303 308 310 313 313 316 320 322 321 321 322 323 326 325 323 323 322 321 321 321 323
228 232 235 236 237 237 238 239 235 235 239 247 256 261 264 258 268 275 280 282 282 286 292 296 298 303 306 307 307 310 313 313 314 314 315 317 317 315 316 316 317 317 318 319
230 232 235 233 235 241 236 235 236 242 242 237 250 260 264 263 268 272 274 277 279 281 287 294 294 296 298 302 302 304 307 308 308 308 308 310 310 309 310 310 310 312 313 313
230 231 234 233 234 241 241 237 235 238 243 243 248 252 257 266 266 268 269 273 278 280 281 286 289 292 295 297 298 299 302 304 304 302 303 304 304 302 303 305 305 307 309 311
232 233 229 229 227 230 238 238 237 238 240 244 246 250 251 260 263 266 267 271 275 278 277 278 283 287 289 291 292 295 297 299 299 299 298 298 299 299 299 300 301 303 305 307
235 235 232 231 231 231 233 236 237 238 239 242 247 248 252 256 261 267 270 272 272 273 275 276 280 283 284 286 289 290 292 294 295 295 294 293 294 294 294 295 298 300 302 305
237 237 235 235 234 233 238 239 238 239 244 245 245 247 248 256 260 259 264 268 270 272 272 272 274 278 279 283 284 286 288 290 291 291 290 289 290 291 291 292 294 296 298 302
237 239 238 237 239 240 240 240 240 242 245 245 247 250 250 254 258 257 260 264 268 270 272 273 273 275 278 281 283 281 284 287 288 288 288 287 288 288 288 289 290 292 295 298
239 239 240 241 243 242 241 240 241 243 245 244 245 250 252 255 257 259 261 264 266 269 273 274 273 274 278 279 280 282 282 285 287 286 285 288 286 286 286 287 288 290 291 293
241 241 241 243 245 246 244 242 243 246 248 248 252 255 254 257 259 258 261 264 265 266 269 272 273 273 275 277 278 280 281 284 285 283 281 282 284 285 285 288 289 291 291 291
242 242 242 244 247 248 248 247 245 248 251 251 253 253 254 255 258 259 261 264 265 265 267 269 271 272 273 275 276 278 281 283 284 282 279 280 282 283 284 285 288 289 291 291
243 244 244 245 248 249 248 247 246 247 251 252 252 253 255 256 258 261 262 263 265 266 267 269 271 272 273 274 276 278 280 281 281 279 277 277 280 281 281 284 286 287 289 289
245 247 248 246 246 249 250 249 248 249 251 253 253 253 256 258 259 261 263 265 266 266 268 270 272 272 272 273 274 276 278 278 278 277 276 276 279 280 280 282 283 285 287 288
247 246 248 249 248 249 252 251 250 251 252 253 254 255 258 259 259 262 263 264 266 267 268 269 270 271 271 272 274 276 275 274 275 276 276 276 277 279 280 281 283 285 286 287
251 249 249 250 249 249 252 253 253 253 254 256 257 259 260 261 261 261 263 264 265 267 268 268 268 269 270 271 273 274 273 273 273 275 276 276 277 278 279 281 283 284 285 285
252 251 250 251 251 251 252 254 254 255 256 258 259 260 261 262 262 262 263 264 265 266 267 267 268 269 269 271 272 272 272 272 273 274 275 277 277 278 280 280 282 283 284 285
251 252 251 251 251 251 252 254 255 257 259 260 261 261 261 262 263 263 264 264 265 267 267 266 267 269 269 270 272 272 272 272 273 273 275 276 278 278 280 281 280 280 281 283
Height
5912 5915 5917 5919 5921 5924 5924 5925 5925 5924 5924 5924 5923 5922 5921 5918 5917 5916 5915 5913 5912 5911 5910 5909 5908 5907 5906 5905 5904 5904 5904 5903 5903 5903 5902 5901 5901 5901 5900 5900 5900 5899 5899 5898
5913 5915 5918 5919 5921 5923 5923 5924 5925 5925 5924 5924 5924 5923 5921 5920 5919 5917 5915 5915 5914 5913 5912 5911 5910 5908 5907 5907 5906 5905 5905 5904 5904 5903 5903 5902 5902 5901 5901 5900 5900 5899 5899 5898
5911 5916 5917 5919 5920 5922 5923 5924 5925 5925 5924 5924 5923 5923 5922 5921 5920 5918 5917 5916 5915 5914 5913 5912 5911 5910 5909 5908 5907 5907 5906 5906 5905 5904 5903 5902 5902 5902 5901 5900 5900 5899 5898 5898
5910 5913 5916 5918 5920 5922 5922 5923 5924 5924 5923 5923 5924 5923 5921 5922 5920 5919 5918 5917 5916 5915 5915 5914 5912 5911 5910 5909 5908 5908 5907 5906 5906 5905 5904 5903 5902 5902 5901 5900 5900 5899 5898 5897
5908 5911 5913 5916 5918 5919 5920 5921 5921 5922 5922 5923 5923 5923 5920 5920 5920 5920 5919 5917 5917 5916 5915 5914 5913 5912 5911 5910 5909 5909 5908 5907 5906 5905 5904 5903 5903 5902 5901 5900 5899 5898 5897 5896
5906 5909 5911 5914 5916 5917 5918 5919 5920 5920 5921 5922 5923 5922 5919 5919 5919 5919 5919 5918 5917 5916 5916 5915 5914 5913 5912 5911 5910 5909 5909 5908 5906 5905 5904 5903 5903 5902 5901 5899 5898 5897 5897 5895
5903 5906 5908 5911 5913 5914 5915 5917 5919 5919 5920 5920 5920 5920 5919 5918 5917 5918 5917 5918 5917 5916 5915 5915 5914 5913 5912 5911 5910 5910 5909 5908 5906 5905 5904 5903 5902 5901 5900 5898 5897 5896 5895 5894
5901 5904 5906 5907 5909 5911 5912 5914 5917 5918 5918 5919 5918 5918 5918 5917 5916 5915 5915 5916 5916 5915 5915 5914 5913 5913 5911 5911 5910 5909 5909 5907 5906 5905 5904 5903 5902 5900 5899 5898 5897 5896 5894 5893
5898 5902 5903 5904 5906 5908 5909 5911 5914 5915 5915 5916 5917 5916 5915 5914 5913 5913 5913 5914 5915 5914 5914 5913 5913 5912 5911 5910 5909 5909 5908 5907 5906 5904 5903 5902 5901 5900 5898 5897 5896 5894 5893 5892
5892 5895 5898 5899 5902 5904 5906 5907 5910 5912 5912 5912 5914 5914 5913 5911 5911 5911 5911 5912 5912 5912 5912 5911 5911 5910 5910 5909 5908 5907 5906 5905 5904 5903 5902 5901 5900 5898 5897 5896 5894 5893 5891 5890
5887 5891 5894 5896 5897 5900 5902 5904 5906 5907 5908 5910 5911 5913 5909 5908 5909 5909 5909 5909 5909 5910 5910 5909 5909 5908 5908 5907 5906 5905 5905 5904 5903 5901 5900 5899 5898 5897 5895 5894 5892 5891 5889 5888
5882 5886 5888 5891 5894 5896 5898 5900 5902 5904 5904 5905 5906 5910 5907 5905 5906 5907 5907 5906 5906 5907 5907 5906 5906 5905 5905 5904 5904 5903 5901 5901 5900 5899 5898 5897 5895 5894 5893 5891 5890 5888 5887 5885
5876 5879 5882 5886 5891 5891 5892 5894 5897 5899 5900 5901 5903 5906 5902 5902 5903 5903 5904 5903 5903 5904 5904 5903 5902 5902 5902 5901 5901 5900 5899 5898 5897 5896 5895 5894 5892 5891 5890 5888 5887 5885 5884 5882
5870 5873 5877 5880 5882 5885 5886 5889 5891 5893 5895 5896 5898 5899 5898 5898 5898 5898 5899 5899 5899 5899 5900 5899 5899 5899 5899 5898 5897 5896 5895 5894 5893 5892 5891 5890 5889 5887 5886 5885 5883 5882 5880 5878
5863 5866 5869 5872 5875 5878 5880 5883 5886 5888 5889 5892 5893 5893 5892 5893 5893 5894 5894 5895 5894 5894 5895 5895 5895 5894 5894 5894 5893 5892 5891 5890 5889 5888 5887 5886 5884 5883 5882 5880 5879 5877 5876 5874
5855 5859 5862 5865 5868 5871 5873 5876 5879 5882 5883 5885 5886 5887 5886 5887 5887 5888 5888 5889 5889 5889 5889 5889 5890 5889 5889 5889 5888 5887 5886 5885 5884 5883 5882 5880 5879 5878 5877 5875 5874 5872 5871 5869
5849 5852 5855 5858 5862 5864 5867 5870 5872 5875 5876 5879 5879 5880 5880 5881 5880 5881 5882 5883 5883 5883 5883 5883 5883 5883 5883 5882 5882 5881 5880 5880 5878 5877 5876 5874 5874 5872 5871 5870 5868 5867 5865 5864
5842 5844 5848 5851 5855 5856 5861 5863 5865 5868 5869 5871 5872 5872 5872 5872 5872 5874 5876 5876 5877 5877 5876 5876 5876 5876 5876 5876 5875 5874 5874 5873 5872 5871 5869 5867 5867 5866 5865 5864 5862 5861 5859 5857
5834 5837 5840 5843 5845 5847 5852 5854 5858 5860 5860 5863 5864 5864 5864 5863 5864 5865 5867 5868 5869 5869 5869 5869 5869 5869 5869 5869 5868 5867 5867 5866 5865 5864 5862 5861 5861 5860 5858 5857 5856 5854 5852 5850
5826 5829 5832 5835 5837 5839 5844 5847 5849 5851 5850 5853 5853 5854 5855 5856 5856 5857 5859 5860 5861 5861 5861 5861 5861 5861 5861 5861 5860 5859 5859 5858 5857 5856 5855 5854 5853 5852 5851 5850 5848 5846 5845 5843
5819 5820 5823 5826 5828 5831 5834 5837 5839 5842 5841 5842 5843 5843 5845 5846 5848 5848 5850 5852 5853 5853 5853 5853 5853 5852 5852 5852 5851 5851 5850 5849 5848 5847 5846 5845 5843 5843 5842 5841 5840 5838 5836 5834
5811 5813 5815 5818 5820 5825 5824 5826 5829 5829 5830 5832 5833 5835 5836 5838 5839 5839 5841 5842 5843 5843 5843 5843 5843 5843 5843 5842 5840 5839 5840 5839 5838 5837 5836 5836 5834 5834 5833 5832 5831 5829 5827 5826
5802 5806 5807 5809 5813 5813 5814 5815 5817 5818 5820 5822 5824 5826 5827 5828 5829 5830 5831 5832 5832 5833 5833 5833 5833 5833 5833 5832 5830 5829 5830 5829 5828 5828 5827 5826 5825 5824 5823 5822 5820 5819 5818 5816
5793 5796 5798 5800 5801 5803 5805 5806 5807 5808 5810 5811 5813 5815 5817 5818 5819 5819 5820 5821 5822 5822 5822 5822 5822 5822 5822 5822 5821 5820 5820 5819 5819 5818 5817 5816 5815 5814 5812 5811 5810 5809 5808 5806
5785 5786 5787 5789 5791 5792 5794 5796 5797 5798 5800 5801 5803 5804 5806 5807 5807 5808 5809 5809 5810 5810 5811 5811 5811 5812 5812 5811 5811 5810 5809 5809 5808 5808 5807 5805 5803 5803 5802 5801 5800 5799 5798 5796
5775 5776 5778 5779 5781 5782 5784 5785 5787 5788 5790 5791 5792 5793 5794 5796 5796 5797 5797 5798 5798 5799 5800 5800 5800 5800 5800 5800 5800 5799 5799 5798 5797 5797 5795 5794 5792 5792 5792 5791 5790 5788 5788 5786